Flag for Austria Weather past 2 weeks in Ternitz, Lower Austria, Austria

Now
36 °F

Chilly.


Feels Like: 32 °F
Forecast: 44 / 54 °F
Wind: 5 mph from North

Location: Eisenstadt

Current Time: Mar 29, 2015 at 3:36:54 AM

Latest Report: Mar 29, 2015 at 3:00 AM


Visibility: N/A

Pressure: 30.00 "Hg

Humidity: 74%

Dew point: 28 °F

Location of TernitzLocation

Historic Weather in Ternitz — Graph

°F

Ternitz temperature yesterday

Maximum temperature yesterday: 51 °F (at 1:00 PM)
Minimum temperature yesterday: 38 °F (at 11:00 PM)
Average temperature yesterday: 47 °F

Past Weeks' High & Low Weather Summary

 TemperatureHumidityPressure
High64 °F (Mar 26, 4:00 PM)94% (Mar 26, 10:00 PM)30.53 "Hg (Mar 26, 10:00 PM)
Low31 °F (Mar 19, 6:00 AM)36% (Mar 18, 4:00 PM)29.70 "Hg (Mar 26, 5:00 PM)
Average45 °F67%30.13 "Hg
* Reported Mar 14 1:00 AM — Mar 29 1:00 AM, Ternitz, Weather by CustomWeather, © 2015

Note: Actual official high and low records may vary slightly from our data, if they occured in-between our weather recording intervals... More about our weather records

Advertising

Ternitz weather history for previous 24 hours

 ConditionsComfort  
Time TempWeatherWind HumidityBarometerVisibility
1:00 AM
Sun, Mar 29
36 °FChilly.3 mph75%30.01 "HgN/A
12:00 AM37 °FChilly.2 mph73%30.02 "HgN/A
11:00 PM
Sat, Mar 28
38 °FChilly.3 mph72%30.03 "HgN/A
9:00 PM41 °FQuite cool.1 mph66%30.06 "HgN/A
8:00 PM44 °FQuite cool.2 mph55%30.06 "HgN/A
7:00 PM46 °FOvercast.3 mph50%30.05 "Hg9 mi
6:00 PM48 °FCool.5 mph44%30.04 "HgN/A
5:00 PM49 °FCool.3 mph45%30.04 "HgN/A
4:00 PM50 °FOvercast.6 mph43%30.04 "Hg9 mi
3:00 PM51 °FCool.6 mph42%30.05 "HgN/A
2:00 PM51 °FCool.7 mph42%30.06 "HgN/A
1:00 PM51 °FOvercast.6 mph44%30.07 "Hg9 mi
12:00 PM51 °FCool.6 mph47%30.08 "HgN/A
11:00 AM51 °FCool.6 mph50%30.09 "HgN/A
10:00 AM49 °FCool.7 mph53%30.10 "HgN/A
9:00 AM47 °FCool.8 mph57%30.11 "HgN/A
8:00 AM46 °FCool.7 mph60%30.10 "HgN/A
7:00 AM46 °FOvercast.6 mph61%30.09 "Hg9 mi
6:00 AM45 °FOvercast.5 mph62%30.09 "Hg9 mi
5:00 AM45 °FPartly sunny.5 mph64%30.08 "Hg9 mi
4:00 AM45 °FPassing clouds.7 mph63%30.06 "Hg9 mi
3:00 AM45 °FCool.7 mph63%30.06 "HgN/A
Weather by CustomWeather, © 2015

See weather overviewHow to use our weather pages